SCP
0 0 0 0 0 0 1 1 1 1 1 1 1 1 1 1 1 1 1 1 1 1 0 0 0 0 0 0 0 0 -0 0
1 1 1 1 1 1 1 1 1 1 1 1 1 1 1 1 1 1 1 1 1 1 1 0 0 0 0 0 0 0 0 0
1 1 1 1 1 1 1 1 1 1 1 1 1 1 1 1 1 1 1 1 1 1 1 0 0 0 0 0 0 0 0 0
0 0 1 1 1 1 1 1 1 1 1 2 2 2 2 2 1 1 2 1 1 1 1 1 1 1 1 0 0 0 0 0
0 0 0 1 1 2 2 2 2 2 1 2 2 3 3 3 2 2 2 1 2 1 2 2 1 1 1 1 0 0 0 0
0 0 0 1 2 2 3 4 3 3 2 2 1 2 2 3 4 2 2 2 2 2 3 2 1 1 1 1 1 1 1 0
0 0 1 2 3 4 4 4 4 3 3 2 2 2 2 3 3 4 3 2 2 2 3 2 2 1 1 1 1 1 1 1
0 0 0 0 0 3 6 6 5 4 4 3 2 2 2 2 2 3 3 4 3 2 2 3 3 2 2 1 1 1 1 1
0 0 0 0 0 0 0 0 1 1 1 0 0 0 0 2 2 2 2 3 3 3 3 3 3 3 2 2 2 1 1 1
0 0 0 0 0 0 0 0 0 0 0 0 0 0 0 0 0 1 1 1 1 3 3 3 4 3 3 2 3 3 2 1
0 0 0 0 0 0 0 0 0 0 0 0 0 0 0 0 0 0 0 0 0 0 2 3 2 2 3 3 3 3 3 3
0 0 0 0 0 0 0 0 0 0 0 0 0 0 0 0 0 0 0 0 0 0 0 1 2 3 2 2 2 2 3 2
0 0 0 0 0 0 0 0 0 0 0 0 0 0 0 0 0 0 0 0 0 0 0 0 1 2 1 1 2 3 1 1
0 0 0 0 0 0 0 0 0 0 0 0 0 0 0 0 0 0 0 0 0 0 0 0 0 1 2 1 1 0 0 0
0 0 0 0 0 0 0 0 0 0 0 0 0 0 0 0 0 0 0 0 0 0 0 0 0 0 1 2 1 1 1 0
0 0 0 0 0 0 0 0 0 0 0 0 0 0 0 0 0 0 0 0 0 0 0 0 0 0 0 1 1 1 1 0
0 0 0 0 0 0 0 0 0 0 0 0 0 0 0 0 0 0 0 0 0 0 0 0 0 0 0 0 0 1 1 1
0 0 0 0 0 0 0 0 0 0 0 0 0 -0 0 0 0 0 0 0 0 0 0 0 0 0 0 0 0 0 0 0
0 0 0 0 0 0 0 0 0 0 0 0 0 0 -0 0 0 0 0 0 0 0 0 0 0 0 0 0 0 0 0 0
0 0 0 0 0 0 0 0 0 0 0 0 0 0 -0 -0 0 0 0 0 0 0 0 0 0 0 0 0 0 0 0 0
Wind_Speed_500mb
8 9 14 20 29 35 37 38 38 39 39 40 42 43 43 42 41 40 37 34 33 32 30 29 28 27 28 25 24 22 18 18
18 17 20 25 29 32 36 38 39 40 42 42 43 45 47 47 47 46 44 41 38 36 34 32 31 30 31 29 28 27 25 22
22 24 26 29 31 32 32 36 38 42 45 47 46 47 49 52 53 53 50 47 45 42 39 36 35 34 34 34 33 30 25 24
23 24 29 32 36 38 36 37 37 40 45 47 51 51 39 40 46 56 54 52 51 48 45 41 40 36 35 40 40 29 29 27
28 31 31 35 36 40 39 31 28 32 38 39 47 52 53 54 42 45 58 59 56 56 53 52 50 40 37 35 35 33 31 29
32 32 32 34 32 37 35 32 34 35 37 40 42 46 50 52 54 55 41 45 48 52 51 51 50 47 45 42 40 37 34 33
31 34 37 33 32 35 38 40 46 43 41 41 40 42 47 50 53 55 55 54 55 52 57 52 55 51 49 49 45 43 42 38
25 28 31 35 33 39 41 42 39 42 44 39 37 38 43 45 49 54 54 54 54 55 64 62 58 58 61 59 52 48 44 44
28 27 27 30 32 43 45 49 45 46 44 42 39 37 41 42 40 44 50 53 58 62 61 61 62 65 69 69 69 65 53 49
27 26 21 19 27 35 30 41 43 41 39 41 40 44 44 46 48 50 53 54 58 59 58 63 66 63 67 69 71 68 68 64
23 24 23 21 18 19 17 24 25 24 28 31 35 39 43 42 43 45 51 54 57 60 64 65 65 68 70 72 75 70 70 69
19 22 23 21 19 19 13 10 15 17 20 25 26 28 32 33 33 41 44 42 43 49 60 62 71 78 73 84 92 74 60 60
19 19 19 21 20 15 20 19 10 10 13 17 22 27 31 30 29 34 38 40 40 44 44 47 57 69 71 77 73 62 91 72
23 22 19 16 12 11 11 15 20 16 16 16 19 22 26 29 34 38 39 43 48 49 45 42 42 45 52 56 47 58 67 90
35 31 26 20 15 15 14 13 13 15 20 23 26 26 25 28 34 39 40 42 45 45 49 51 40 42 45 41 22 32 43 59
26 28 28 29 29 27 23 17 15 23 23 30 28 27 30 34 36 39 42 44 43 44 44 46 49 53 42 57 64 53 44 43
17 19 22 24 26 31 33 29 27 25 26 35 40 34 28 33 33 35 39 41 43 42 42 42 43 45 54 42 51 57 66 60
23 22 24 22 23 26 29 30 34 37 37 36 44 47 38 32 33 32 34 37 40 42 42 41 42 44 48 46 54 52 48 60
24 25 26 29 29 26 26 24 23 27 34 45 44 49 40 36 34 34 35 37 39 42 43 41 40 44 47 53 56 55 71 62
24 24 25 26 27 27 28 30 30 28 26 25 25 37 39 40 35 32 32 32 35 38 39 36 39 43 49 52 57 59 58 54
Wind_Direction_500mb
243 241 237 233 236 238 239 239 239 239 240 239 237 233 230 229 229 227 227 227 228 229 228 225 225 226 234 237 239 239 215 219
262 255 250 249 244 242 243 243 243 243 242 242 242 240 237 234 232 230 229 229 230 231 233 232 231 230 234 237 238 240 235 234
288 277 270 261 260 256 252 250 246 244 245 245 243 241 239 236 235 234 231 231 231 232 232 234 235 233 233 238 239 239 240 234
304 294 271 266 257 253 252 250 247 249 248 245 243 243 240 239 239 237 235 234 233 233 233 234 235 234 238 235 239 233 239 237
318 290 277 266 258 249 246 242 241 243 244 243 247 247 247 247 239 246 237 235 235 235 230 231 232 227 234 238 236 233 237 243
294 292 279 265 252 251 240 235 240 245 257 258 256 253 246 245 246 245 235 233 237 230 233 230 230 230 228 234 235 233 238 240
289 277 274 254 257 247 241 241 245 254 262 266 262 256 253 249 245 244 247 247 242 237 234 234 235 232 234 234 236 238 234 235
293 276 266 254 237 235 243 244 249 253 255 262 276 263 257 257 252 249 247 245 246 250 247 242 242 244 241 241 239 239 242 241
307 290 271 253 236 233 233 237 239 247 246 251 258 253 257 258 254 256 256 254 250 249 249 250 246 248 251 250 250 248 241 237
321 311 300 279 245 242 234 237 238 242 241 244 241 243 245 252 255 256 256 256 253 254 255 256 252 246 249 250 251 248 250 246
316 307 296 288 273 243 236 234 229 226 233 235 239 244 246 249 252 262 263 262 261 260 253 253 254 254 251 250 246 245 242 244
332 319 309 297 290 271 256 257 252 244 246 249 247 248 251 255 260 263 266 270 268 264 259 259 255 253 261 257 250 243 253 251
355 349 330 310 302 283 273 271 291 266 266 267 267 269 268 266 268 269 265 265 267 259 258 260 259 257 262 260 257 252 256 232
6 5 6 360 338 321 323 302 284 282 278 292 282 274 273 272 273 271 272 268 266 264 263 264 264 257 258 255 254 255 247 252
13 7 2 3 14 22 27 350 349 314 309 301 302 297 286 282 278 278 278 274 271 268 266 260 264 259 248 241 244 252 261 249
13 10 7 5 356 348 343 3 353 354 350 331 319 311 301 294 288 284 283 281 277 274 267 262 259 259 261 242 245 255 256 253
340 358 359 352 352 349 341 326 327 318 334 337 332 321 313 304 297 290 286 282 280 278 273 266 258 258 260 256 254 259 251 254
352 342 337 343 347 342 339 343 333 316 315 326 333 329 328 316 310 306 295 289 283 280 276 270 263 258 256 260 252 252 254 257
0 3 1 353 339 328 323 321 317 319 307 292 315 318 320 319 321 312 304 293 289 287 281 277 269 266 261 261 256 259 251 256
353 360 356 355 348 346 346 339 344 336 332 307 303 310 319 319 321 321 315 309 299 293 290 288 280 274 269 267 264 259 257 254
Wind_Speed_850mb
8 9 14 20 29 35 37 38 38 39 39 40 42 43 43 42 41 40 37 34 33 32 30 29 28 27 28 25 24 22 18 18
18 17 20 25 29 32 36 38 39 40 42 42 43 45 47 47 47 46 44 41 38 36 34 32 31 30 31 29 28 27 25 22
22 24 26 29 31 32 32 36 38 42 45 47 46 47 49 52 53 53 50 47 45 42 39 36 35 34 34 34 33 30 25 24
23 24 29 32 36 38 36 37 37 40 45 47 51 51 39 40 46 56 54 52 51 48 45 41 40 36 35 40 40 29 29 27
28 31 31 35 36 40 39 31 28 32 38 39 47 52 53 54 42 45 58 59 56 56 53 52 50 40 37 35 35 33 31 29
32 32 32 34 32 37 35 32 34 35 37 40 42 46 50 52 54 55 41 45 48 52 51 51 50 47 45 42 40 37 34 33
31 34 37 33 32 35 38 40 46 43 41 41 40 42 47 50 53 55 55 54 55 52 57 52 55 51 49 49 45 43 42 38
25 28 31 35 33 39 41 42 39 42 44 39 37 38 43 45 49 54 54 54 54 55 64 62 58 58 61 59 52 48 44 44
28 27 27 30 32 43 45 49 45 46 44 42 39 37 41 42 40 44 50 53 58 62 61 61 62 65 69 69 69 65 53 49
27 26 21 19 27 35 30 41 43 41 39 41 40 44 44 46 48 50 53 54 58 59 58 63 66 63 67 69 71 68 68 64
23 24 23 21 18 19 17 24 25 24 28 31 35 39 43 42 43 45 51 54 57 60 64 65 65 68 70 72 75 70 70 69
19 22 23 21 19 19 13 10 15 17 20 25 26 28 32 33 33 41 44 42 43 49 60 62 71 78 73 84 92 74 60 60
19 19 19 21 20 15 20 19 10 10 13 17 22 27 31 30 29 34 38 40 40 44 44 47 57 69 71 77 73 62 91 72
23 22 19 16 12 11 11 15 20 16 16 16 19 22 26 29 34 38 39 43 48 49 45 42 42 45 52 56 47 58 67 90
35 31 26 20 15 15 14 13 13 15 20 23 26 26 25 28 34 39 40 42 45 45 49 51 40 42 45 41 22 32 43 59
26 28 28 29 29 27 23 17 15 23 23 30 28 27 30 34 36 39 42 44 43 44 44 46 49 53 42 57 64 53 44 43
17 19 22 24 26 31 33 29 27 25 26 35 40 34 28 33 33 35 39 41 43 42 42 42 43 45 54 42 51 57 66 60
23 22 24 22 23 26 29 30 34 37 37 36 44 47 38 32 33 32 34 37 40 42 42 41 42 44 48 46 54 52 48 60
24 25 26 29 29 26 26 24 23 27 34 45 44 49 40 36 34 34 35 37 39 42 43 41 40 44 47 53 56 55 71 62
24 24 25 26 27 27 28 30 30 28 26 25 25 37 39 40 35 32 32 32 35 38 39 36 39 43 49 52 57 59 58 54
Wind_Direction_850mb
243 241 237 233 236 238 239 239 239 239 240 239 237 233 230 229 229 227 227 227 228 229 228 225 225 226 234 237 239 239 215 219
262 255 250 249 244 242 243 243 243 243 242 242 242 240 237 234 232 230 229 229 230 231 233 232 231 230 234 237 238 240 235 234
288 277 270 261 260 256 252 250 246 244 245 245 243 241 239 236 235 234 231 231 231 232 232 234 235 233 233 238 239 239 240 234
304 294 271 266 257 253 252 250 247 249 248 245 243 243 240 239 239 237 235 234 233 233 233 234 235 234 238 235 239 233 239 237
318 290 277 266 258 249 246 242 241 243 244 243 247 247 247 247 239 246 237 235 235 235 230 231 232 227 234 238 236 233 237 243
294 292 279 265 252 251 240 235 240 245 257 258 256 253 246 245 246 245 235 233 237 230 233 230 230 230 228 234 235 233 238 240
289 277 274 254 257 247 241 241 245 254 262 266 262 256 253 249 245 244 247 247 242 237 234 234 235 232 234 234 236 238 234 235
293 276 266 254 237 235 243 244 249 253 255 262 276 263 257 257 252 249 247 245 246 250 247 242 242 244 241 241 239 239 242 241
307 290 271 253 236 233 233 237 239 247 246 251 258 253 257 258 254 256 256 254 250 249 249 250 246 248 251 250 250 248 241 237
321 311 300 279 245 242 234 237 238 242 241 244 241 243 245 252 255 256 256 256 253 254 255 256 252 246 249 250 251 248 250 246
316 307 296 288 273 243 236 234 229 226 233 235 239 244 246 249 252 262 263 262 261 260 253 253 254 254 251 250 246 245 242 244
332 319 309 297 290 271 256 257 252 244 246 249 247 248 251 255 260 263 266 270 268 264 259 259 255 253 261 257 250 243 253 251
355 349 330 310 302 283 273 271 291 266 266 267 267 269 268 266 268 269 265 265 267 259 258 260 259 257 262 260 257 252 256 232
6 5 6 360 338 321 323 302 284 282 278 292 282 274 273 272 273 271 272 268 266 264 263 264 264 257 258 255 254 255 247 252
13 7 2 3 14 22 27 350 349 314 309 301 302 297 286 282 278 278 278 274 271 268 266 260 264 259 248 241 244 252 261 249
13 10 7 5 356 348 343 3 353 354 350 331 319 311 301 294 288 284 283 281 277 274 267 262 259 259 261 242 245 255 256 253
340 358 359 352 352 349 341 326 327 318 334 337 332 321 313 304 297 290 286 282 280 278 273 266 258 258 260 256 254 259 251 254
352 342 337 343 347 342 339 343 333 316 315 326 333 329 328 316 310 306 295 289 283 280 276 270 263 258 256 260 252 252 254 257
0 3 1 353 339 328 323 321 317 319 307 292 315 318 320 319 321 312 304 293 289 287 281 277 269 266 261 261 256 259 251 256
353 360 356 355 348 346 346 339 344 336 332 307 303 310 319 319 321 321 315 309 299 293 290 288 280 274 269 267 264 259 257 254